STARLINK-33654, 63466

Orbit data source: Space-Track

STARLINK-33654, 63466 is a payload satellite owned by SpaceX/Seattle (US) in LEO that was launched on Sun, 06 Apr 2025 UTC via an FALCON 9 launch vehicle from the Air Force Eastern Test Range (AFETR). Payload-class satellites include a variety of spacecraft equipped with specific instruments for various scientific and technological missions. These include communications satellites like Starlink; space stations such as the ISS; scientific satellites like the Hubble; Earth observation satellites from companies like Planet Labs, Umbra, and HawkEye 360; GPS; miniature CubeSats for education and research; and military/defense satellites.

Loading next visibility...
Identifier
63466, 2025-070G
Orbit
LEO
Country
Flag of USUS
Related business
Manufacturer
SpaceX/Seattle
Mission
Operational Commercial Communications
Bus & Motor
STARLINK V2MO, Unknown motor
Mass
575 kg wet, ~530 kg dry
Launch date (UTC)
2025-04-06 (1 year ago)
Launch vehicle
FALCON 9
Launch site
Air Force Eastern Test Range (AFETR)
Object type
Payload
Rocket body
Debris
Shape & HBR
Box + 2 Pan, 17.7 m
Radar Cross Section
36.964 m², Large (>1 m²)

Expand to show TLE details & history
Last TLE update: 18 hours ago

TLE from 18 hours ago
0 STARLINK-33654
1 63466U 25070G   26169.36720505  .00011635  00000-0  43172-3 0  9997
2 63466  42.9997  51.2378 0001252 283.6982  76.3730 15.27575109 68373
Epoch: 2026-06-18T08:48Z
TLE epoch observation values (Epoch: 2026-06-18T08:48:46.516Z)
Latitude
-0.00003°
Longitude
12.4324°
Altitude
482.637 km
Speed
7.626 km/s
True Right ascension
03h 24m 57s
True Declination
0° 00' 00"
Sunlit
Object was in daylight at epoch
Visualization orbit readout
Latitude
Unknown
Longitude
Unknown
Altitude
Unknown
Speed
Unknown
Apparent Right ascension
Unknown
Apparent Declination
Unknown
Sunlit
N/A
Visualization observer readout
Local Sidereal Time
14:05:33
Azimuth
Unknown
Elevation
Unknown
Doppler factor
Unknown
Orbital elements
Apogee altitude
485.868 km
Perigee altitude
484.15 km
Semi-major axis
6,863.146 km
Eccentricity
0.00013
Inclination
42.9997°
RAAN
51.2378°
Arg. of periapsis
283.6982°
True anomaly
76.38694°
Mean anomaly
76.373°
Eccentric anomaly
76.37997°
Mean motion
3.81732 °/min
Orbital period
94.31 mins
BSTAR
0.00043172
Loading maneuver chart data...
Computing Atmospheric mass density...
Loading historical data...
Loading historical data...
Loading historical data...
Loading historical data...
Loading historical data...
Loading historical data...
Loading historical data...

Documentation

Showing up to 5 results
|